Location: Sevilla
(37.3933°N, 5.9839°W)
Time: 04:51:49
(UTC+02:00)

Transit 2A - Pass Details

Date: 04 July 2024
Orbit: 591 x 960 km, 66.7° (Epoch: 15 July)

Event Time Altitude Azimuth Distance (km) Brightness Sun altitude
Rises 22:24:54 0° 341° (NNW) 3,576 10.5 -7.0°
Reaches altitude 10° 22:27:48 10° 353° (N) 2,663 9.5 -7.4°
Maximum altitude 22:33:09 29° 51° (NE) 1,699 7.7 -8.3°
Drops below altitude 10° 22:38:32 10° 109° (ESE) 2,681 8.2 -9.1°
Enters shadow 22:38:40 - 110° (ESE) 2,724 8.2 -9.1°
Sets 22:41:26 0° 121° (ESE) 3,605 - -9.6°
